sat.trackr.live / text

‹ back to catalog

STARLINK-5154

NORAD 54176 · 2022-141V

PAYLOAD ACTIVE UNKNOWN

§ Identity

Operator
Country
US
Launch date
2022-10-28
Launch site
AFWTR
Launch vehicle
Mass (kg)
RCS (m²)

Purposes: comms

External: N2YO · Heavens-Above · Gunter

§ Orbital elements

Epoch: 2026-05-25T02:10:50.278944Z

Period
95.44 min
Inclination
53.2145°
Eccentricity
0.0001574
Mean motion
15.08835983 rev/d
Perigee alt
538.7 km
Apogee alt
540.8 km
Semi-major
6,917.9 km
B*
-1.4399e-4
RAAN
20.9940°
Arg perigee
91.6236°
Mean anomaly
268.4936°
Rev number
19,739

§ Raw data

STARLINK-51541 54176U 22141V   26145.09085971 -.00002579  00000+0 -14399-3 0  99932 54176  53.2145  20.9940 0001574  91.6236 268.4936 15.08835983197390

JSON: /api/v1/satellites/54176 · /tle

For live sub-satellite position, see the globe view (requires WebGL).

§ Visibility from observer

Set your observer location to see the next 7 days of passes ≥ 10°. The values pass through the URL so the page stays shareable.

No JS? Fill the form by hand. The geolocation button needs JavaScript.